Left ArrowRight Arrow

44.31136, -96.79839

Hourly Observations for June 2, 2020

Temp ( °F °C ) Dew Point ( °F °C ) Humidity (%) Winds ( mph kmh ) Pressure ( in mb ) Visibility ( mi km ) Precip ( " mm )
12:56 am 00:56 Clear 73 22.8 65 18.3 76 76 Calm 29.80 1009 10 16 0.00 0.00
1:56 am 01:56 Clear 69 20.6 64 17.8 84 84 Calm 29.80 1009 10 16 0.00 0.00
2:56 am 02:56 Clear 72 22.2 64 17.8 76 76 SSE 6 9 29.80 1009 10 16 0.00 0.00
3:56 am 03:56 Clear 71 21.7 63 17.2 76 76 ENE 3 6 29.79 1009 10 16 0.00 0.00
4:56 am 04:56 Clear 69 20.6 62 16.7 78 78 ENE 5 7 29.81 1009 10 16 0.00 0.00
5:56 am 05:56 Sunny 68 20 62 16.7 81 81 E 5 7 29.83 1010 10 16 0.00 0.00
6:56 am 06:56 Sunny 72 22.2 61 16.1 68 68 ENE 7 11 29.82 1010 10 16 0.00 0.00
7:56 am 07:56 Sunny 75 23.9 58 14.4 55 55 E 9 15 29.81 1010 10 16 0.00 0.00
8:56 am 08:56 Sunny 79 26.1 59 15 50 50 E 10 17 29.82 1010 10 16 0.00 0.00
9:56 am 09:56 Sunny 82 27.8 59 15 46 46 ESE 16 26 29.80 1009 10 16 0.00 0.00
10:56 am 10:56 Sunny 84 28.9 63 17.2 49 49 ESE 14 22 29.80 1009 10 16 0.00 0.00
11:56 am 11:56 undefined 87 30.6 59 15 39 39 ENE 10 17 29.84 1011 10 16 0.00 0.00
12:56 pm 12:56 Sunny 87 30.6 57 13.9 36 36 NE 14 22 29.83 1010 10 16 0.00 0.00
1:56 pm 13:56 Sunny 87 30.6 55 12.8 34 34 ENE 14 22 29.83 1010 10 16 0.00 0.00
2:56 pm 14:56 Sunny 89 31.7 54 12.2 30 30 NNE 15 24 29.83 1010 10 16 0.00 0.00
3:56 pm 15:56 Sunny 82 27.8 55 12.8 40 40 NNE 21 33 29.86 1011 10 16 0.00 0.00
4:56 pm 16:56 Sunny 81 27.2 53 11.7 38 38 NE 22 35 29.87 1012 10 16 0.00 0.00
5:56 pm 17:56 Mostly Cloudy 78 25.6 54 12.2 43 43 NNE 10 17 29.89 1012 10 16 0.00 0.00
6:56 pm 18:56 Mostly Cloudy 79 26.1 55 12.8 44 44 N 13 20 29.88 1012 10 16 0.00 0.00
7:56 pm 19:56 Sunny 78 25.6 56 13.3 47 47 NNE 12 19 29.89 1012 10 16 0.00 0.00
8:56 pm 20:56 Sunny 75 23.9 56 13.3 52 52 NNE 6 9 29.92 1013 10 16 0.00 0.00
9:56 pm 21:56 Clear 73 22.8 55 12.8 53 53 NE 3 6 29.94 1014 10 16 0.00 0.00
10:56 pm 22:56 Clear 70 21.1 57 13.9 64 64 NE 5 7 29.96 1015 10 16 0.00 0.00
11:56 pm 23:56 Clear 64 17.8 56 13.3 75 75 WNW 3 6 29.97 1015 10 16 0.00 0.00

Powered by Vaisala Xweather